Hourly Weather Bolshoe Afanasovo

Today, 30 July, Friday

Time Temperature Precipitation Wind Pressure Humidity
00:00 +18°C° 0 mm 4 mps 746 mmHg 85%
01:00 +17°C° 0 mm 4 mps 746 mmHg 89%
02:00 +17°C° 0 mm 4 mps 745 mmHg 92%
03:00 +17°C° 0 mm 3 mps 745 mmHg 95%
04:00 +17°C° 0 mm 4 mps 745 mmHg 94%
05:00 +18°C° 0 mm 4 mps 745 mmHg 94%
06:00 +19°C° 0 mm 4 mps 745 mmHg 93%
07:00 +20°C° 0 mm 4 mps 745 mmHg 86%
08:00 +21°C° 0 mm 4 mps 745 mmHg 78%
09:00 +23°C° 0 mm 5 mps 745 mmHg 70%
10:00 +25°C° 0 mm 5 mps 745 mmHg 66%
11:00 +26°C° 0 mm 5 mps 746 mmHg 61%
12:00 +27°C° 0 mm 5 mps 746 mmHg 57%
13:00 +27°C° 0 mm 5 mps 746 mmHg 57%
14:00 +27°C° 0 mm 5 mps 746 mmHg 57%
15:00 +27°C° 0 mm 5 mps 746 mmHg 57%
16:00 +26°C° 0.1 mm 4 mps 746 mmHg 61%
17:00 +26°C° 0.1 mm 3 mps 746 mmHg 64%
18:00 +25°C° 0.1 mm 2 mps 746 mmHg 68%
19:00 +24°C° 0 mm 2 mps 746 mmHg 70%
20:00 +23°C° 0 mm 2 mps 746 mmHg 72%
21:00 +21°C° 0 mm 2 mps 746 mmHg 74%
22:00 +23°C° 0 mm 2 mps 746 mmHg 72%
23:00 +23°C° 0 mm 2 mps 746 mmHg 70%

Tomorrow, 31 July, Saturday

Time Temperature Precipitation Wind Pressure Humidity
00:00 +23°C° 0 mm 2 mps 746 mmHg 68%
01:00 +23°C° 0 mm 2 mps 746 mmHg 69%
02:00 +23°C° 0 mm 2 mps 746 mmHg 69%
03:00 +21°C° 0 mm 2 mps 746 mmHg 70%
04:00 +21°C° 0.3 mm 2 mps 746 mmHg 76%
05:00 +20°C° 0.3 mm 2 mps 746 mmHg 82%
06:00 +20°C° 0.3 mm 2 mps 746 mmHg 88%
07:00 +22°C° 0 mm 3 mps 746 mmHg 80%
08:00 +25°C° 0 mm 4 mps 745 mmHg 72%
09:00 +27°C° 0 mm 5 mps 745 mmHg 65%
10:00 +28°C° 0 mm 6 mps 745 mmHg 59%
11:00 +29°C° 0 mm 6 mps 745 mmHg 54%
12:00 +32°C° 0 mm 7 mps 745 mmHg 48%
13:00 +32°C° 0 mm 7 mps 745 mmHg 48%
14:00 +32°C° 0 mm 8 mps 745 mmHg 47%
15:00 +32°C° 0 mm 8 mps 745 mmHg 47%
16:00 +30°C° 0 mm 7 mps 745 mmHg 51%
17:00 +29°C° 0 mm 7 mps 745 mmHg 54%
18:00 +28°C° 0 mm 6 mps 745 mmHg 58%
19:00 +26°C° 0 mm 5 mps 746 mmHg 67%
20:00 +23°C° 0 mm 4 mps 746 mmHg 77%
21:00 +21°C° 0 mm 3 mps 746 mmHg 86%
22:00 +20°C° 0 mm 3 mps 747 mmHg 86%
23:00 +19°C° 0 mm 3 mps 747 mmHg 87%

Day after tomorrow, 1 August, Sunday

Time Temperature Precipitation Wind Pressure Humidity
00:00 +19°C° 0 mm 3 mps 747 mmHg 87%
01:00 +18°C° 0 mm 3 mps 748 mmHg 85%
02:00 +18°C° 0 mm 3 mps 748 mmHg 83%
03:00 +18°C° 0 mm 3 mps 748 mmHg 80%
04:00 +19°C° 0 mm 3 mps 748 mmHg 75%
05:00 +20°C° 0 mm 3 mps 749 mmHg 70%
06:00 +21°C° 0 mm 4 mps 749 mmHg 65%
07:00 +22°C° 0 mm 5 mps 749 mmHg 58%
08:00 +25°C° 0 mm 5 mps 750 mmHg 51%
09:00 +27°C° 0 mm 6 mps 750 mmHg 44%
10:00 +28°C° 0 mm 7 mps 750 mmHg 42%
11:00 +28°C° 0 mm 7 mps 750 mmHg 40%
12:00 +29°C° 0 mm 7 mps 750 mmHg 37%
13:00 +29°C° 0 mm 7 mps 750 mmHg 37%
14:00 +30°C° 0 mm 7 mps 750 mmHg 37%
15:00 +30°C° 0 mm 7 mps 750 mmHg 37%
16:00 +29°C° 0 mm 6 mps 750 mmHg 39%
17:00 +28°C° 0 mm 6 mps 750 mmHg 41%
18:00 +28°C° 0 mm 5 mps 751 mmHg 43%
19:00 +26°C° 0 mm 4 mps 751 mmHg 47%
20:00 +24°C° 0 mm 3 mps 751 mmHg 51%
21:00 +23°C° 0 mm 1 mps 751 mmHg 55%
22:00 +22°C° 0 mm 1 mps 751 mmHg 57%
23:00 +22°C° 0 mm 1 mps 752 mmHg 59%

2 August, Monday

Time Temperature Precipitation Wind Pressure Humidity
00:00 +21°C° 0 mm 1 mps 752 mmHg 62%
01:00 +21°C° 0 mm 1 mps 752 mmHg 64%
02:00 +20°C° 0 mm 1 mps 752 mmHg 67%
03:00 +20°C° 0 mm 1 mps 752 mmHg 69%
04:00 +21°C° 0 mm 1 mps 752 mmHg 68%
05:00 +21°C° 0 mm 2 mps 752 mmHg 66%
06:00 +23°C° 0 mm 2 mps 752 mmHg 65%
07:00 +25°C° 0 mm 3 mps 752 mmHg 57%
08:00 +27°C° 0 mm 4 mps 752 mmHg 50%
09:00 +29°C° 0 mm 5 mps 753 mmHg 42%
10:00 +30°C° 0 mm 5 mps 752 mmHg 39%
11:00 +33°C° 0 mm 5 mps 752 mmHg 35%
12:00 +34°C° 0 mm 5 mps 752 mmHg 31%
13:00 +34°C° 0 mm 5 mps 751 mmHg 30%
14:00 +35°C° 0 mm 5 mps 751 mmHg 29%
15:00 +35°C° 0 mm 6 mps 751 mmHg 29%
16:00 +34°C° 0 mm 5 mps 751 mmHg 33%
17:00 +33°C° 0 mm 4 mps 751 mmHg 37%
18:00 +31°C° 0 mm 3 mps 751 mmHg 41%
19:00 +28°C° 0 mm 2 mps 751 mmHg 47%
20:00 +26°C° 0 mm 1 mps 751 mmHg 54%
21:00 +24°C° 0 mm 1 mps 751 mmHg 60%
22:00 +24°C° 0 mm 1 mps 750 mmHg 57%
23:00 +24°C° 0 mm 1 mps 750 mmHg 55%

3 August, Tuesday

Time Temperature Precipitation Wind Pressure Humidity
00:00 +23°C° 0 mm 2 mps 750 mmHg 53%
01:00 +23°C° 0.1 mm 2 mps 750 mmHg 54%
02:00 +21°C° 0.1 mm 2 mps 750 mmHg 56%
03:00 +21°C° 0.1 mm 2 mps 750 mmHg 57%
04:00 +23°C° 0 mm 2 mps 750 mmHg 57%
05:00 +24°C° 0 mm 3 mps 750 mmHg 56%
06:00 +25°C° 0 mm 3 mps 750 mmHg 56%
07:00 +28°C° 0 mm 4 mps 750 mmHg 48%
08:00 +30°C° 0 mm 6 mps 750 mmHg 39%
09:00 +34°C° 0 mm 7 mps 749 mmHg 31%
10:00 +35°C° 0 mm 7 mps 749 mmHg 28%
11:00 +38°C° 0 mm 7 mps 749 mmHg 26%
12:00 +39°C° 0 mm 7 mps 749 mmHg 23%
13:00 +40°C° 0 mm 7 mps 749 mmHg 21%
14:00 +40°C° 0 mm 6 mps 748 mmHg 19%
15:00 +40°C° 0 mm 6 mps 748 mmHg 18%
16:00 +39°C° 0 mm 6 mps 748 mmHg 21%
17:00 +36°C° 0 mm 5 mps 748 mmHg 25%
18:00 +35°C° 0 mm 5 mps 748 mmHg 29%
19:00 +32°C° 0 mm 5 mps 749 mmHg 37%
20:00 +28°C° 0 mm 5 mps 749 mmHg 45%
21:00 +26°C° 0 mm 5 mps 750 mmHg 52%
22:00 +23°C° 0 mm 4 mps 750 mmHg 60%
23:00 +22°C° 0 mm 3 mps 750 mmHg 67%

4 August, Wednesday

Time Temperature Precipitation Wind Pressure Humidity
00:00 +21°C° 0 mm 2 mps 750 mmHg 75%
01:00 +20°C° 0 mm 2 mps 750 mmHg 76%
02:00 +20°C° 0 mm 2 mps 750 mmHg 77%
03:00 +20°C° 0 mm 1 mps 750 mmHg 78%
04:00 +21°C° 0 mm 1 mps 751 mmHg 75%
05:00 +22°C° 0 mm 1 mps 751 mmHg 72%
06:00 +23°C° 0 mm 1 mps 751 mmHg 68%
07:00 +25°C° 0 mm 2 mps 751 mmHg 63%
08:00 +27°C° 0 mm 2 mps 751 mmHg 58%
09:00 +28°C° 0 mm 2 mps 751 mmHg 52%
10:00 +30°C° 0 mm 2 mps 751 mmHg 49%
11:00 +31°C° 0 mm 3 mps 751 mmHg 46%
12:00 +33°C° 0 mm 3 mps 751 mmHg 42%
13:00 +33°C° 0 mm 3 mps 751 mmHg 40%
14:00 +33°C° 0 mm 4 mps 751 mmHg 38%
15:00 +33°C° 0 mm 5 mps 751 mmHg 36%
16:00 +31°C° 0 mm 3 mps 751 mmHg 38%
17:00 +30°C° 0 mm 2 mps 751 mmHg 41%
18:00 +30°C° 0 mm 1 mps 751 mmHg 43%
19:00 +28°C° 0.1 mm 1 mps 751 mmHg 50%
20:00 +26°C° 0.1 mm 1 mps 751 mmHg 58%
21:00 +24°C° 0.1 mm 1 mps 752 mmHg 65%
22:00 +23°C° 0.6 mm 2 mps 752 mmHg 73%
23:00 +21°C° 0.6 mm 2 mps 752 mmHg 81%
Show more

We Need Your Consent

Meteoprog and our Service Providers may store and access personal data such as cookies, device identifiers or other similar technologies on your device and process such data to personalise content and ads, as well as provide social media features and to analyse the traffic.

  • Store and/or access information on your device

    Cookies, device identifiers or other information can be stored or accessed on your device for the purposes indicated above.

  • Personalised ads and content, ad and content measurement, audience insights, and products development

    Ads and content can be personalised based on a profile. More data can be added to better personalise ads and content. Ad and content performance can be measured. Insights about the audience who saw the ads and content can be derived. Such data can be used to develop or improve user’s experience, systems and software.

By clicking ‘I Agree’ you will allow the use of indicated cookies, device identifiers, web beacons or other similar technologies. Your settings can be changed in the browser on your device.

For certain purposes, legitimate interests may be relied on, rather than consent. You can read more about this in our Privacy and Cookie Policy.